Location: Poughquag
(41.6090°N, 73.6820°W)
Time: 06:44:19
(UTC-05:00)

Altair - Pass Details

Date: 28 November 2023
Orbit: 1501 x 1682 km, 47.2° (Epoch: 02 March)

Event Time Altitude Azimuth Distance (km) Brightness Sun altitude
Rises 06:51:05 0° 168° (SSE) 4,823 10.7 -2.1°
Reaches altitude 10° 06:57:26 10° 139° (SE) 3,795 11.1 -1.0°
Maximum altitude 07:00:05 11° 122° (ESE) 3,665 11.7 -0.6°
Drops below altitude 10° 07:02:43 10° 105° (ESE) 3,759 11.4 -0.2°
Sets 07:08:49 0° 76° (ENE) 4,704 10.8 0.8°
